Simultaneous Nadir Overpasses (SNOs) Predictions

Prediction of SNOs between LANDSAT-8 and NOAA-19 Satellite Orbit:

Table of predicted SNOs for the next 14.0 days since TLE Epoch: 11/24/2018
Index Date (LANDSAT-8) Time (LANDSAT-8) Lat,Lon (LANDSAT-8) SZA (LANDSAT-8 ) Date (NOAA-19) Time (NOAA-19) Lat,Lon (NOAA-19) SZA (NOAA-19 ) Distance(km) Time Diff (sec)
1 11/25/2018 02:48:27 78.17, 154.22 99.47 11/25/2018 02:48:37 78.19, 154.21 99.49 2.31 10
2 11/27/2018 08:22:11 -78.20,-109.07 80.09 11/27/2018 08:22:05 -78.21,-109.21 80.09 3.42 6
3 11/29/2018 13:55:54 78.21, -12.47 100.30 11/29/2018 13:55:39 78.20, -12.45 100.29 0.70 15
4 11/29/2018 14:45:22 -78.18, 155.03 79.74 11/29/2018 14:46:35 -78.18, 154.95 79.72 1.98 73
5 12/01/2018 19:29:38 -78.24, 84.25 79.32 12/01/2018 19:29:06 -78.22, 84.14 79.35 3.04 32
6 12/01/2018 20:19:05 78.18,-108.38 100.61 12/01/2018 20:20:10 78.19,-108.44 100.64 1.80 65
7 12/04/2018 01:03:21 78.24,-179.18 100.99 12/04/2018 01:02:41 78.22,-179.17 100.96 1.69 40
8 12/04/2018 01:52:49 -78.21, -11.66 79.05 12/04/2018 01:53:36 -78.19, -11.72 79.06 2.72 47
9 12/06/2018 06:37:06 -78.23, -82.67 78.76 12/06/2018 06:36:07 -78.24, -82.53 78.76 3.21 59




NCC Satellite Simultaneous Nadir Overpasses (SNOs) Prediction Service
